www.pogodaiklimat.ru

Погода и климат >> Архив погоды >> Парагвай >> Коронель-Овьедо


ПОГОДА в Коронель-Овьедо

  • Прогноз погоды в Коронель-Овьедо
  • Монитор погоды в Коронель-Овьедо

АРХИВ ПОГОДЫ в Коронель-Овьедо

Время (UTC), дата Ветер
(напр.,м/с)
 
Видим.   Явления Облачность Т
(С)
Тd
(С)
f
(%)
Тe
(С)
Тes
(С)
Комфортность P
(гПа)
Po
(гПа)
Тmin
(С)
Tmax
(С)
R
(мм)
R24
(мм)
S
(см)
06 17.07 Ю 1 20 км 3/0
[Ci fib]
+9.0 +2.1 62 +9 +9 1024.8 1005.3
09 17.07 Ю 1 20 км 4/0
[Ci]
+7.2 +4.4 82 +6 +6 1022.9 1003.9
12 17.07 Ю 1 20 км 3/0
[Cc]
+7.8 +5.3 84 +7 +9 1024.5 1004.9 +5.3
15 17.07 ЮВ 4 20 км ясно +19.6 +9.1 51 +21 +27 комфорт 1024.1 1005.3
18 17.07 В 1 20 км 3/0
[Ci]
+22.8 +10.0 44 +25 +32 комфорт 1022.1 1003.5
21 17.07 Ю 2 20 км 5/0
[Ci]
+16.6 +11.8 73 +17 +17 1021.0 1002.0
00 18.07 Ю 1 20 км 5/0
[Ci]
+12.8 +9.4 80 +13 +13 1021.0 1001.8 +24.0
03 18.07 Ю 1 20 км 3/0
[Ci]
+11.4 +9.6 89 +11 +11 1020.8 1001.4
06 18.07 ЮВ 1 20 км 3/0
[Ci fib]
+12.0 +9.6 85 +12 +12 1020.7 1001.4
09 18.07 В 2 20 км 4/0
[Ci fib]
+12.6 +9.0 79 +12 +12 1019.4 1000.2
12 18.07 В 5 20 км 10/5 900 м
[Sc Ac As]
+15.8 +10.3 70 +15 +15 1020.1 1001.1 +7.8
15 18.07 В 4 20 км 9/5 1000 м
[Sc Ac As]
+17.6 +8.5 55 +17 +19 1021.0 1002.1
18 18.07 В 3 20 км гроза без осадков 9/6 1000 м
[Sc Ac As]
+20.4 +12.8 62 +23 +24 комфорт 1019.3 1000.5
21 18.07 ЮВ 3 20 км {гроза} 10/10 2000 м
[Frnb]
+18.2 +12.4 69 +19 +19 1019.0 1000.1
00 19.07 Ю 2 20 км 10/0 2000 м
[Ac As]
+16.6 +12.0 74 +17 +17 1018.8 999.9 +20.7
03 19.07 Ю 1 20 км 10/0 2000 м
[Ac As]
+17.0 +13.1 78 +18 +18 1021.9 1002.2
06 19.07 Ю 1 20 км 9/0 2000 м
[Ac As]
+15.8 +10.7 72 +17 +17 1019.6 1000.6
09 19.07 Ю 2 20 км гроза без осадков 10/5 600 м
[Cb cap Ac As]
+16.4 +12.0 75 +17 +17 1018.7 999.8
12 19.07 В 3 15 км слаб. дождь {гроза} 10/10 450 м
[Sc]
+15.8 +12.9 83 +15 +15 1021.1 1002.1 +14.8 0.0
15 19.07 СВ 4 10 км слаб. дождь 10/10 240 м
[Sc]
+16.4 +15.7 96 +16 +16 1021.6 1002.6 3
18 19.07 ЮВ 3 20 км {дождь} 10/5 450 м
[Sc Ac As]
+17.4 +14.7 84 +17 +18 1020.2 1001.2 0.6
21 19.07 ЮВ 2 20 км 6/3 1000 м
[Sc Ac As]
+19.4 +15.5 78 +22 +22 комфорт 1017.8 999.1
00 20.07 Ю 1 20 км 5/0 2000 м
[Ac As]
+15.6 +14.2 91 +16 +16 1019.0 1000.0 +20.1
03 20.07 Ю 1 20 км 5/0 2000 м
[Ac As]
+14.8 +12.7 87 +15 +15 1018.0 999.4
06 20.07 Ю 2 20 км 5/0
[Ac cast]
+14.8 +13.0 89 +15 +15 1016.3 997.3
09 20.07 Ю 1 20 км 6/0 2000 м
[Ac As]
+15.8 +12.7 82 +16 +16 1015.8 996.9
12 20.07 ЮВ 1 20 км 8/3 900 м
[Sc Ac As]
+17.2 +14.8 86 +18 +19 1017.3 998.4 +14.4 3
15 20.07 СВ 3 20 км 4/0
[Ac cast]
+26.0 +16.2 55 +29 +36 душно 1017.9 992.6
18 20.07 В 4 20 км 6/3 1200 м
[Cu hum Ac cuf]
+29.8 +15.8 43 +33 +35 душно 1013.7 995.7
21 20.07 СВ 2 20 км ясно +27.8 +14.9 45 +30 +30 жарко 1011.8 999.7
00 21.07 В 2 20 км 1/0
[Ci fib]
+21.2 +14.1 64 +24 +24 комфорт 1012.4 993.8 +29.8
03 21.07 В 3 20 км 3/0
[Ac cast]
+22.4 +15.3 64 +26 +26 жарко 1012.3 993.9
06 21.07 В 4 20 км 4/0
[Ac cast]
+21.6 +13.8 61 +24 +24 комфорт 1012.0 993.5
09 21.07 В 3 20 км 4/0
[Ac cast]
+20.6 +12.6 60 +23 +23 комфорт 1011.4 992.9
12 21.07 СВ 5 20 км 9/0 2000 м
[Ac As]
+20.2 +10.6 54 +22 +22 комфорт 1012.3 993.7 +17.2
15 21.07 СВ 3 20 км 9/3 900 м
[Sc Ac As]
+22.8 +10.4 45 +25 +27 комфорт 1011.5 993.1
18 21.07 СВ 6 15 км дым 9/0 2000 м
[Ac As Cs]
+28.8 +14.2 41 +31 +33 жарко 1009.4 991.4
21 21.07 СВ 3 20 км 8/0
[Ac cast]
+27.0 +15.4 49 +30 +30 душно 1006.8 988.8
00 22.07 СВ 3 20 км 5/0
[Ac cast]
+22.4 +15.1 63 +26 +26 жарко 1007.9 989.4 +28.8
06 22.07 В 4 20 км 4/0
[Ac cast]
+21.6 +13.8 61 +24 +24 комфорт 1012.0 993.5
09 22.07 СВ 3 20 км 5/0
[Ac cast]
+21.6 +13.6 60 +24 +24 комфорт 1009.7 991.3
12 22.07 СВ 3 20 км 5/0
[Ac cast Cs]
+22.2 +13.3 57 +25 +26 комфорт 1010.9 992.5 +20.2
15 22.07 СВ 4 20 км 8/3 900 м
[Sc Ac As]
+28.0 +14.6 44 +30 +33 жарко 1011.6 993.5
18 22.07 СВ 4 20 км 9/5 900 м
[Sc Ac As]
+28.2 +14.5 43 +30 +31 жарко 1010.5 992.4
21 22.07 В 2 20 км 10/10 600 м
[Sc]
+25.8 +18.5 64 +31 +31 очень
душно
1011.0 992.8
00 23.07 Ю 1 20 км 10/10 600 м
[Sc]
+23.4 +18.1 72 +29 +29 душно 1011.4 993.0 +28.2
06 23.07 В 1 20 км 10/10 800 м
[Sc]
+20.6 +18.1 86 +25 +25 комфорт 1014.0 995.4
09 23.07 В 1 20 км 9/0 2000 м
[Ac As]
+20.6 +17.6 83 +25 +25 комфорт 1012.8 994.3
12 23.07 В 1 20 км 9/0 2000 м
[Ac As Cs]
+21.2 +17.5 79 +25 +27 комфорт 1014.9 996.3 +19.7
15 23.07 В 1 20 км 9/0 2000 м
[Ac As]
+26.6 +21.1 72 +34 +38 очень
душно
1016.0 997.8
18 23.07 СЗ 3 20 км 9/3 900 м
[Sc Ac As]
+27.2 +19.0 61 +32 +34 очень
душно
1014.9 996.7
21 23.07 СЗ 3 20 км 10/0 2000 м
[Ac As]
+22.2 +17.1 73 +27 +27 душно 1014.5 996.0
00 24.07 З 1 20 км 9/0 2000 м
[Ac As]
+17.6 +16.3 92 +19 +19 1017.5 998.7 +27.9
03 24.07 З 2 20 км 9/0 2000 м
[Ac As]
+15.6 +13.5 87 +15 +15 1019.1 1000.1

 

Местоположение метеостанции Коронель-Овьедо (Парагвай): широта -25.45 долгота -56.36 высота над уровнем моря 163 м.

В архиве по умолчанию представлена погода в Коронель-Овьедо за последнюю неделю. Архивные данные за месяц целиком и за предыдущие месяцы, начиная с января 2011 года, Вы можете получить, выбрав интересующий диапазон дат из раскрывающегося списка и нажав кнопку "Ввод!".


*Определитесь, кто Вы:
робот инопланетянин человек

Внимание! Время в таблицах - всемирное. Для получения местного времени необходимо прибавить поправку, которая равна -4 ч.

Смотрите также архив погоды в соседних городах и на ближайших метеорологических станциях:

Погода в Вильяррике (Парагвай) (34 км)
Погода в Парагуари (Парагвай) (80 км)
Погода в Каасапе (Парагвай) (81 км)
Погода в Сан Эстанислао (Парагвай) (89 км)
Погода в Куйкуйо (Парагвай) (106 км)
Погода в Асунсьоне (Парагвай) (118 км)
Погода в Аэропорту Гуарани (Парагвай) (152 км)
Погода в Сан Хуан Батистута (Парагвай) (156 км)
Погода в Сан-Педро (Парагвай) (171 км)
Погода в Фос-ду-Игуасу (Парана, Бразилия) (179 км)

Пояснения к столбцам:

Ветер - указаны скорость ветра в м/с - средняя за 10 мин, порывы в срок и между сроками (в фигурных скобках) и направление, откуда дует ветер: С - северный, СВ - северо-восточный, В - восточный, ЮВ - юго-восточный, Ю - южный, ЮЗ - юго-западный, З - западный, СЗ - северо-западный.
Видимость - горизонтальная дальность видимости в метрах или километрах. При видимости от 1 до 10 км при отсутствии осадков обычно наблюдается дымка, при ухудшении видимости до 1 км и менее - туман. В сухую погоду видимость может ухудшаться дымом, пылью или мглою.
Явления - указаны атмосферные явления, наблюдавшиеся в срок или в последний час перед сроком; фигурными скобками обозначены явления, наблюдавшиеся между сроками (за 1-3 часа до срока); квадратными скобками обозначены град или гололедные отложения с указанием их диаметра в мм.
Облачность - указаны через наклонную черту общая и нижняя облачность в баллах и высота нижней границы облаков в метрах; квадратными скобками обозначены формы облаков: Ci - перистые, Cs - перисто-слоистые, Cc - перисто-кучевые, Ac - высококучевые, As - высокослоистые, Sc - слоисто-кучевые, Ns - слоисто-дождевые, Cu - кучевые, Cb - кучево-дождевые. Подробнее классификацию облаков см. в Атласе облаков (PDF).
T - Температура воздуха - температура, измеренная на высоте 2 м над землей.
Td - Температура точки росы - температура, при понижении до которой содержащийся в воздухе водяной пар достигнет насыщения.
f - Относительная влажность воздуха - влажноcть воздуха, измеренная на высоте 2 м над землей.
Te - Эффективная температура - температура, которую ощущает одетый по сезону человек в тени. Характеристика душности погоды. При расчете учитывается влияние влажности воздуха и скорости ветра на теплоощущения человека.
Tes - Эффективная температура на солнце - температура, которую ощущает человек, с поправкой на солнечный нагрев. Характеристика знойности погоды. Зависит от высоты солнца над горизонтом, облачности и скорости ветра. Ночью, в пасмурную погоду, а также при ветре 12 м/с и более поправка равна нулю.
P - Атмосферное давление - приведенное к уровню моря атмосферное давление.
Po - Атмосферное давление - измеренное на уровне метеостанции атмосферное давление.
Tmin - Минимальная температура - минимум температуры воздуха на высоте 2 м над землей.
Tmax - Максимальная температура - максимум температуры воздуха на высоте 2 м над землей.
R - Количество осадков - Количество выпавших осадков за период времени, мм. При наведении курсора мыши на число - период времени, за который выпало указанное количество осадков.
R24 - Количество осадков - Количество выпавших осадков за 24 часа, мм.
S - Снежный покров - Высота снежного покрова, см. При наведении курсора мыши на число - состояние снежного покрова и степень покрытия местности в баллах.